Location: Rometta
(44.2000°N, 10.0500°E)
Time: 11:27:34
(UTC+00:00)

Cosmos 1726 Rocket - Pass Details

Date: 20 January 2021
Orbit: 604 x 628 km, 82.5° (Epoch: 06 March)

Event Time Altitude Azimuth Distance (km) Brightness Sun altitude
Rises 17:37:58 0° 346° (NNW) 2,883 7.0 -15.0°
Reaches altitude 10° 17:40:13 10° 342° (NNW) 1,977 6.2 -15.4°
Maximum altitude 17:44:28 53° 266° (W) 762 4.4 -16.1°
Drops below altitude 10° 17:48:44 10° 190° (S) 1,976 6.4 -16.9°
Sets 17:50:59 0° 185° (S) 2,881 7.2 -17.3°
